Tyler, TX

8:46 AM CST on December 08, 2016 (GMT -0600)
Tyler Pounds

Weather History for KTYR - November, 2011

Change the Weather History Date:

Saturday, November 19, 2011

  Actual Average Record
Temperature  
Mean Temperature 68 °F 54 °F  
Max Temperature 77 °F 64 °F 83 °F (1925)
Min Temperature 59 °F 45 °F 21 °F (1903)
Degree Days  
Heating Degree Days 0 11  
Month to date heating degree days 112 153  
Since 1 July heating degree days 178 230  
Cooling Degree Days 3 0  
Month to date cooling degree days 43 14  
Year to date cooling degree days 3664 2407  
Growing Degree Days 18 (Base 50)    
Moisture  
Dew Point 61 °F    
Average Humidity 77    
Maximum Humidity 90    
Minimum Humidity 64    
Precipitation  
Precipitation 0.00 in 0.13 in 1.63 in (1953)
Month to date precipitation 1.70 2.73  
Year to date precipitation 17.58 40.18  
Snow  
Snow 0.00 in - - ()
Month to date snowfall 0.0  
Since 1 July snowfall 0.0  
Since 1 September snowfall 0.0  
Snow Depth 0.00 in    
Sea Level Pressure  
Sea Level Pressure 29.94 in    
Wind  
Wind Speed 14 mph (South)    
Max Wind Speed 26 mph    
Max Gust Speed 31 mph    
Visibility 10 miles    
Events      
T = Trace of Precipitation, MM = Missing Value Source: NWS Daily Summary

Daily Weather History Graph

Daily Weather History Graph

Search for Another Location

Airport or City:

Trip Planner

Search our weather history database for the weather conditions in past years. The results will help you decide how hot, cold, wet, or windy it might be!

Date:

Astronomy

Nov. 19, 2011 Rise Set
Actual Time 6:54 AM CST 5:19 PM CST
Civil Twilight 6:28 AM CST 5:45 PM CST
Nautical Twilight 5:58 AM CST 6:15 PM CST
Astronomical Twilight 5:29 AM CST 6:44 PM CST
Moon 12:37 AM CST (11/19) 1:18 PM CST (11/19)
Length of Visible Light 11h 17m
Length of Day
10h 24m
Last Quarter, 38% of the Moon is Illuminated
Nov 19
Last Quarter
Nov 25
New
Dec 2
First Quarter
Dec 10
Full
Dec 17
Last Quarter

Hourly Weather History & Observations

Time (CST) Temp. Dew Point Humidity Pressure Visibility Wind Dir Wind Speed Gust Speed Precip Events Conditions
12:53 AM 59.0 °F 53.1 °F 81% 29.98 in 10.0 mi South 16.1 mph 23.0 mph N/A   Overcast
1:42 AM 59.0 °F 53.6 °F 82% 29.98 in 10.0 mi South 12.7 mph - N/A   Overcast
1:53 AM 59.0 °F 54.0 °F 83% 29.97 in 10.0 mi South 11.5 mph - N/A   Overcast
2:53 AM 60.8 °F 55.4 °F 82% 29.97 in 10.0 mi South 12.7 mph 20.7 mph N/A   Overcast
3:53 AM 60.1 °F 55.9 °F 86% 29.94 in 10.0 mi South 13.8 mph - N/A   Overcast
4:53 AM 59.0 °F 55.4 °F 88% 29.94 in 10.0 mi SSE 11.5 mph - N/A   Overcast
5:10 AM 59.0 °F 55.4 °F 88% 29.95 in 10.0 mi South 9.2 mph - N/A   Overcast
5:17 AM 59.0 °F 55.4 °F 88% 29.94 in 10.0 mi South 11.5 mph - N/A   Overcast
5:46 AM 59.0 °F 55.4 °F 88% 29.95 in 10.0 mi South 8.1 mph - N/A   Overcast
5:53 AM 60.1 °F 55.9 °F 86% 29.95 in 10.0 mi South 8.1 mph - N/A   Overcast
6:53 AM 61.0 °F 57.0 °F 87% 29.96 in 10.0 mi South 8.1 mph - N/A   Overcast
7:53 AM 62.1 °F 57.9 °F 86% 29.98 in 10.0 mi South 11.5 mph - N/A   Overcast
8:42 AM 64.4 °F 59.0 °F 83% 29.99 in 10.0 mi South 13.8 mph - N/A   Overcast
8:53 AM 64.9 °F 59.0 °F 81% 29.98 in 10.0 mi South 12.7 mph - N/A   Overcast
9:53 AM 70.0 °F 61.0 °F 73% 29.98 in 10.0 mi South 15.0 mph - N/A   Overcast
10:53 AM 72.0 °F 63.0 °F 73% 29.97 in 10.0 mi South 16.1 mph 25.3 mph N/A   Overcast
11:19 AM 73.4 °F 62.6 °F 69% 29.97 in 10.0 mi South 18.4 mph 25.3 mph N/A   Overcast
11:53 AM 75.0 °F 64.0 °F 69% 29.94 in 10.0 mi South 13.8 mph 24.2 mph N/A   Overcast
12:53 PM 75.9 °F 64.0 °F 67% 29.90 in 10.0 mi South 20.7 mph 27.6 mph N/A   Mostly Cloudy
1:53 PM 75.9 °F 64.0 °F 67% 29.88 in 10.0 mi South 18.4 mph 24.2 mph N/A   Overcast
2:53 PM 77.0 °F 64.9 °F 66% 29.88 in 10.0 mi South 17.3 mph 23.0 mph N/A   Overcast
3:53 PM 75.9 °F 64.9 °F 69% 29.88 in 10.0 mi South 18.4 mph 27.6 mph N/A   Overcast
4:53 PM 75.0 °F 66.0 °F 73% 29.89 in 10.0 mi SSE 15.0 mph - N/A   Overcast
5:34 PM 75.2 °F 66.2 °F 73% 29.91 in 10.0 mi South 15.0 mph - N/A   Overcast
5:46 PM 73.4 °F 66.2 °F 78% 29.91 in 10.0 mi South 12.7 mph - N/A   Overcast
5:53 PM 75.0 °F 66.0 °F 73% 29.90 in 10.0 mi South 13.8 mph 18.4 mph N/A   Overcast
6:11 PM 73.4 °F 66.2 °F 78% 29.92 in 10.0 mi South 13.8 mph - N/A   Overcast
6:29 PM 73.4 °F 66.2 °F 78% 29.92 in 10.0 mi South 15.0 mph - N/A   Overcast
6:53 PM 73.4 °F 66.2 °F 78% 29.92 in 10.0 mi South 16.1 mph 28.8 mph N/A   Overcast
7:53 PM 73.4 °F 66.2 °F 78% 29.95 in 10.0 mi South 13.8 mph - N/A   Overcast
8:53 PM 73.0 °F 66.0 °F 79% 29.96 in 10.0 mi South 10.4 mph - N/A   Overcast
9:53 PM 73.0 °F 66.0 °F 79% 29.96 in 10.0 mi South 11.5 mph - N/A   Overcast
10:00 PM 73.4 °F 66.2 °F 78% 29.98 in 10.0 mi South 12.7 mph - N/A   Overcast
10:53 PM 73.4 °F 66.2 °F 78% 29.98 in 10.0 mi South 13.8 mph - N/A   Overcast
11:53 PM 73.0 °F 66.9 °F 81% 29.96 in 10.0 mi South 10.4 mph - N/A   Overcast